Philadelphia Wings Airport, PA

12:06 PM EDT on October 23, 2019 (GMT -0400)
Philadelphia Wings Airport

Weather History for KLOM - August, 2019

Change the Weather History Date:

Monday, August 26, 2019

  Actual Average (WUND) Record (WUND)
Temperature  
Mean Temperature 64 °F -  
Max Temperature 73 °F - - (-1)
Min Temperature 54 °F - - (-1)
Degree Days  
Heating Degree Days 2    
Growing Degree Days 14 (Base 50)    
Moisture  
Dew Point 56 °F    
Average Humidity 82    
Maximum Humidity 99    
Minimum Humidity 55    
Precipitation  
Precipitation 0.00 in - - ()
Sea Level Pressure  
Sea Level Pressure 30.19 in    
Wind  
Wind Speed 3 mph (ENE)    
Max Wind Speed 10 mph    
Max Gust Speed -    
Visibility 10 miles    
Events      
Averages and records for this station are not official NWS values.
T = Trace of Precipitation, MM = Missing Value Source: NWS Daily Summary

Daily Weather History Graph

Daily Weather History Graph

Search for Another Location

Airport or City:

Astronomy

Aug. 26, 2019 Rise Set
Actual Time 6:22 AM EDT 7:42 PM EDT
Civil Twilight 5:54 AM EDT 8:10 PM EDT
Nautical Twilight 5:20 AM EDT 8:44 PM EDT
Astronomical Twilight 4:44 AM EDT 9:19 PM EDT
Moon 1:45 AM EDT (8/26) 5:03 PM EDT (8/26)
Length of Visible Light 14h 16m
Length of Day
13h 19m
Waning Crescent, 19% of the Moon is Illuminated
Aug 26
Waning Crescent
Aug 30
New
Sep 5
First Quarter
Sep 14
Full
Sep 21
Last Quarter

Hourly Weather History & Observations

Time (EDT) Temp. Dew Point Humidity Pressure Visibility Wind Dir Wind Speed Gust Speed Precip Events Conditions
12:15 AM 57.9 °F 57.7 °F 99% 30.23 in 10.0 mi Calm Calm - N/A   Clear
12:35 AM 55.9 °F 55.4 °F 98% 30.22 in 10.0 mi Calm Calm - N/A   Clear
12:55 AM 56.3 °F 56.1 °F 99% 30.22 in 5.0 mi Calm Calm - N/A   Clear
1:15 AM 55.8 °F 55.6 °F 99% 30.22 in 10.0 mi Calm Calm - N/A   Clear
1:35 AM 55.6 °F 55.4 °F 99% 30.21 in 10.0 mi Calm Calm - N/A   Clear
1:55 AM 56.5 °F 55.9 °F 98% 30.21 in 10.0 mi Calm Calm - N/A   Clear
2:10 AM 56.3 °F 56.1 °F 99% 30.20 in 10.0 mi Calm Calm - N/A   Clear
2:35 AM 55.0 °F 54.9 °F 99% 30.20 in 10.0 mi Calm Calm - N/A   Clear
2:55 AM 55.2 °F 55.0 °F 99% 30.20 in 10.0 mi Calm Calm - N/A   Clear
3:15 AM 55.6 °F 55.4 °F 99% 30.20 in 10.0 mi Calm Calm - N/A   Clear
3:35 AM 55.8 °F 55.4 °F 99% 30.20 in 10.0 mi Calm Calm - N/A   Clear
3:55 AM 54.5 °F 54.1 °F 99% 30.21 in 7.0 mi Calm Calm - N/A   Clear
4:15 AM 54.5 °F 54.3 °F 99% 30.21 in 5.0 mi Calm Calm - N/A   Clear
4:35 AM 55.4 °F 55.0 °F 99% 30.21 in 10.0 mi Calm Calm - N/A   Clear
4:55 AM 57.2 °F 56.7 °F 98% 30.21 in 10.0 mi NE 3.5 mph - N/A   Clear
5:15 AM 57.2 °F 56.5 °F 97% 30.21 in 10.0 mi NE 4.6 mph - N/A   Clear
5:35 AM 57.0 °F 55.9 °F 96% 30.21 in 10.0 mi NNE 3.5 mph - N/A   Clear
5:55 AM 56.8 °F 55.4 °F 95% 30.21 in 10.0 mi NE 5.8 mph - N/A   Clear
6:15 AM 56.5 °F 54.5 °F 93% 30.22 in 10.0 mi NE 4.6 mph - N/A   Clear
6:35 AM 55.9 °F 53.8 °F 92% 30.22 in 10.0 mi NE 4.6 mph - N/A   Clear
6:55 AM 56.1 °F 53.6 °F 91% 30.23 in 10.0 mi NE 5.8 mph - N/A   Clear
7:15 AM 56.5 °F 53.8 °F 91% 30.23 in 10.0 mi NE 5.8 mph - N/A   Scattered Clouds
7:35 AM 57.2 °F 54.3 °F 90% 30.23 in 10.0 mi NE 5.8 mph - N/A   Mostly Cloudy
7:55 AM 58.8 °F 55.2 °F 88% 30.23 in 10.0 mi NE 6.9 mph - N/A   Scattered Clouds
8:15 AM 59.9 °F 55.6 °F 86% 30.23 in 10.0 mi NE 6.9 mph - N/A   Clear
8:35 AM 61.2 °F 56.1 °F 83% 30.24 in 10.0 mi NE 5.8 mph - N/A   Clear
8:55 AM 61.7 °F 56.1 °F 82% 30.24 in 10.0 mi ENE 6.9 mph - N/A   Scattered Clouds
9:15 AM 61.5 °F 56.1 °F 82% 30.24 in 10.0 mi NE 4.6 mph - N/A   Mostly Cloudy
9:35 AM 61.5 °F 56.1 °F 82% 30.24 in 10.0 mi NE 4.6 mph - N/A   Overcast
9:55 AM 62.1 °F 56.1 °F 81% 30.23 in 10.0 mi NE 5.8 mph - N/A   Overcast
10:15 AM 62.8 °F 56.1 °F 79% 30.23 in 10.0 mi ENE 5.8 mph - N/A   Overcast
10:35 AM 63.5 °F 56.7 °F 78% 30.23 in 10.0 mi NE 3.5 mph - N/A   Overcast
10:55 AM 64.2 °F 56.5 °F 76% 30.24 in 10.0 mi East 5.8 mph - N/A   Overcast
11:15 AM 64.0 °F 56.5 °F 76% 30.24 in 10.0 mi ENE 5.8 mph - N/A   Overcast
11:35 AM 64.2 °F 56.3 °F 75% 30.23 in 10.0 mi NNE 5.8 mph - N/A   Overcast
11:55 AM 65.5 °F 56.8 °F 74% 30.23 in 10.0 mi ENE 6.9 mph - N/A   Overcast
12:15 PM 66.2 °F 57.2 °F 73% 30.23 in 10.0 mi NE 6.9 mph - N/A   Overcast
12:35 PM 65.8 °F 56.5 °F 72% 30.22 in 10.0 mi NE 4.6 mph - N/A   Overcast
12:55 PM 67.3 °F 57.2 °F 70% 30.22 in 10.0 mi East 3.5 mph - N/A   Overcast
1:15 PM 68.0 °F 56.3 °F 66% 30.21 in 10.0 mi Calm Calm - N/A   Overcast
1:35 PM 67.1 °F 55.9 °F 67% 30.21 in 10.0 mi ENE 3.5 mph - N/A   Mostly Cloudy
1:55 PM 69.1 °F 57.9 °F 68% 30.20 in 10.0 mi ESE 3.5 mph - N/A   Scattered Clouds
2:15 PM 69.4 °F 56.8 °F 64% 30.19 in 10.0 mi ESE 3.5 mph - N/A   Mostly Cloudy
2:35 PM 70.2 °F 57.2 °F 63% 30.18 in 10.0 mi Calm Calm - N/A   Mostly Cloudy
2:55 PM 71.2 °F 58.5 °F 64% 30.18 in 10.0 mi East 5.8 mph - N/A   Mostly Cloudy
3:15 PM 70.7 °F 58.5 °F 65% 30.18 in 10.0 mi SSE 5.8 mph - N/A   Mostly Cloudy
3:35 PM 72.9 °F 59.2 °F 62% 30.16 in 10.0 mi East 5.8 mph - N/A   Mostly Cloudy
3:55 PM 73.2 °F 59.5 °F 62% 30.16 in 10.0 mi East 6.9 mph - N/A   Scattered Clouds
4:15 PM 73.2 °F 59.2 °F 61% 30.15 in 10.0 mi SE 6.9 mph - N/A   Scattered Clouds
4:35 PM 72.3 °F 58.3 °F 61% 30.15 in 10.0 mi ESE 4.6 mph - N/A   Mostly Cloudy
4:55 PM 72.9 °F 58.6 °F 61% 30.14 in 10.0 mi ESE 9.2 mph - N/A   Scattered Clouds
5:15 PM 72.7 °F 58.1 °F 60% 30.14 in 10.0 mi ESE 6.9 mph - N/A   Clear
5:35 PM 72.5 °F 56.1 °F 56% 30.14 in 10.0 mi SE 9.2 mph - N/A   Clear
5:55 PM 71.6 °F 54.9 °F 55% 30.14 in 10.0 mi East 10.4 mph - N/A   Clear
6:15 PM 71.4 °F 55.6 °F 57% 30.14 in 10.0 mi East 5.8 mph - N/A   Clear
6:35 PM 69.6 °F 54.0 °F 57% 30.14 in 10.0 mi East 9.2 mph - N/A   Clear
6:55 PM 69.8 °F 52.9 °F 55% 30.13 in 10.0 mi East 5.8 mph - N/A   Clear
7:15 PM 68.0 °F 53.2 °F 59% 30.14 in 10.0 mi East 5.8 mph - N/A   Clear
7:35 PM 66.0 °F 53.4 °F 64% 30.14 in 10.0 mi Calm Calm - N/A   Clear
7:55 PM 64.2 °F 53.2 °F 67% 30.13 in 10.0 mi East 4.6 mph - N/A   Clear
8:15 PM 60.3 °F 57.4 °F 90% 30.15 in 10.0 mi ESE 3.5 mph - N/A   Clear
8:35 PM 58.8 °F 56.8 °F 93% 30.16 in 10.0 mi Calm Calm - N/A   Clear
8:55 PM 58.5 °F 56.8 °F 94% 30.16 in 10.0 mi Calm Calm - N/A   Clear
9:15 PM 57.4 °F 56.1 °F 96% 30.16 in 10.0 mi Calm Calm - N/A   Clear
9:35 PM 57.2 °F 56.5 °F 97% 30.16 in 10.0 mi Calm Calm - N/A   Clear
9:55 PM 56.5 °F 55.6 °F 97% 30.16 in 10.0 mi Calm Calm - N/A   Clear
10:15 PM 55.9 °F 55.0 °F 97% 30.16 in 10.0 mi Calm Calm - N/A   Clear
10:35 PM 55.6 °F 54.5 °F 96% 30.17 in 10.0 mi Calm Calm - N/A   Clear
10:55 PM 55.9 °F 55.2 °F 97% 30.17 in 10.0 mi Calm Calm - N/A   Clear
11:15 PM 55.4 °F 54.9 °F 98% 30.17 in 10.0 mi Calm Calm - N/A   Clear
11:35 PM 55.9 °F 55.4 °F 98% 30.17 in 10.0 mi Calm Calm - N/A   Clear
11:55 PM 55.8 °F 55.4 °F 99% 30.16 in 10.0 mi Calm Calm - N/A   Clear